LUOJIA-1 01 (43485 NORAD) Tracking and Keplerian Element Data

This shows tracking and keplerian element data for the satellite.

Feedback or suggestion? Click here.




ElementValue
Catalog43485
NameLUOJIA-1 01
Epoch Orbit428
Epoch Day182.22712979
Epoch Year2018
RAAN257.1711
Inclination98.0515
Eccentricity0.0011479
Argument of Perigee173.3777
Mean Anonmoly186.7593
Mean Motion14.76434098
Decay Rate2.02E-06
L11 43485U 18048B 18182.22712979 .00000202 00000-0 36493-4 0 9997
L22 43485 98.0515 257.1711 0011479 173.3777 186.7593 14.76434098 4284

Live tracking and technical data element details for LUOJIA-1 01 (NORAD 43485). LUOJIA-1 01 can be tracked NOW for your location showing map with azimuth and elevation plus other details from your city location.

Track the satellite on the map from your city or location and see movement details for azimuth, elevation, latitude, longitude, range, height, and movement on the map or in text.







IsCatalogInMostPopularTable: catalog: 43485, numindb: 47
Update: records affected: 1



GetName: 43485 LUOJIA-1 01

Hit Count: updated at: Sat, 17 Nov 2018 04:52:00 GMT